STARLINK-3003 (48879 NORAD) Tracking and Keplerian Element Data

This shows tracking and keplerian element data for the satellite.

Feedback or suggestion? Click here.




ElementValue
Catalog48879
NameSTARLINK-3003
Epoch Orbit1342
Epoch Day262.16668981
Epoch Year2021
RAAN30.1388
Inclination97.5193
Eccentricity0.0009594
Argument of Perigee12.5573
Mean Anonmoly238.5195
Mean Motion15.15946897
Decay Rate0.0003295
L11 48879U 21059A 21262.16668981 .00032950 00000-0 17134-2 0 9998
L22 48879 97.5193 30.1388 0009594 12.5573 238.5195 15.15946897 13423

Live tracking and technical data element details for STARLINK-3003 (NORAD 48879). STARLINK-3003 can be tracked NOW for your location showing map with azimuth and elevation plus other details from your city location.

Track the satellite on the map from your city or location and see movement details for azimuth, elevation, latitude, longitude, range, height, and movement on the map or in text.







IsCatalogInMostPopularTable: catalog: 48879, numindb: 19
Update: records affected: 1



GetName: 48879 STARLINK-3003

Hit Count: updated at: Fri, 24 Sep 2021 18:52:22 GMT